Regional Weather Roundup
Issued by NWS Sioux Falls, SD

Home | Current Version | Previous Version | Graphics & Text | Print | Product List | Glossary On
Versions: 1 2 3 4 5 6 7 8 9 10 11 12 13 14 15 16 17 18 19 20 21 22 23 24 25 26 27 28 29 30 31 32 33 34 35 36 37 38 39 40 41 42 43 44 45 46 47 48 49 50
000
ASUS43 KFSD 011702
RWRFSD

WEATHER ROUNDUP FOR SE SOUTH DAKOTA/SW MINNESOTA/NW IOWA
NATIONAL WEATHER SERVICE SIOUX FALLS SD
1100 AM CST SUN FEB 01 2015

NOTE: "FAIR" INDICATES FEW OR NO CLOUDS BELOW 12,000 FEET WITH NO
SIGNIFICANT WEATHER AND OR OBSTRUCTIONS TO VISIBILITY.


SDZ038>040-050-052>070-011800-
SOUTHEAST SOUTH DAKOTA

CITY           SKY/WX    TMP DP  RH WIND       PRES   REMARKS
CHAMBERLAIN    NOT AVBL
HURON          LGT SNOW   1  -6  71 N22G30    30.40R WCI -21
MADISON        LGT RAIN   3   1  92 N23G29    30.25R WCI -19
MITCHELL       LGT SNOW   2  -3  80 N23G31    30.37R VSB 1   WCI -21
SIOUX FALLS    LGT SNOW   6   1  80 N21G28    30.23R VSB 3/4 WCI -14
WINNER         LGT SNOW   1  -5  75 NW24      30.39R WCI -22
YANKTON        CLOUDY   N/A N/A N/A N28       30.27R VSB 1
$$

MNZ071-072-080-081-089-090-097-098-011800-
SOUTHWEST MINNESOTA

CITY           SKY/WX    TMP DP  RH WIND       PRES   REMARKS
FAIRMONT       CLOUDY    14   9  79 N17G25    30.12R VSB 1/2 WCI  -3
JACKSON        CLOUDY    14   9  79 VRB24G32  30.13S HAZE    WCI  -5
LUVERNE        LGT SNOW  10   5  79 N20G29    30.20R WCI  -8
MARSHALL       CLOUDY     9   0  66 N23G30    30.28R WCI -12
MONTEVIDEO     PTSUNNY   10   1  67 NE20G28   30.34R WCI  -8
PIPESTONE      CLOUDY     7   1  78 NE18G25   30.20R HAZE    WCI -12
REDWOOD FALLS  LGT SNOW  12   4  70 N9        30.27R WCI   0
TRACY          LGT SNOW  10   6  81 N22       30.24R WCI  -9
WINDOM         LGT SNOW  10   7  85 N24       30.17R WCI -10
WORTHINGTON    CLOUDY    18   3  53 N21G31    30.16R VSB 3/4 WCI   1
$$

IAZ001>003-012>014-020>022-031-032-NEZ013-014-SDZ071-011800-
NORTHWEST IOWA

CITY           SKY/WX    TMP DP  RH WIND       PRES   REMARKS
ESTHERVILLE    FOG       13  11  92 N25G32    30.11R VSB 1/2 WCI  -7
SIOUX CITY     SNOW      14  10  84 N30       30.16R VSB 1/2 WCI  -7
SPENCER        LGT SNOW  15   9  76 N29G36    30.11R VSB 3/4 WCI  -5
$$

ABBREVIATIONS USED IN REMARKS
   TC - TEMPERATURE IN CELSIUS
  WCI - WIND CHILL INDEX
   HX - HEAT INDEX
  VSB - VISIBILITY




USA.gov is the U.S. government's official web portal to all federal, state and local government web resources and services.